Preview of NWS' New Version of Forecast
This preview is not operational and should not be used for support decisions.

Regional Weather Roundup (RWR)

Issued by National Weather Service (NWS)

                            
000
ASCA42 TJSJ 162310
RWRPR 
PUERTO RICO/U.S. VIRGIN ISLANDS HOURLY WEATHER ROUNDUP
NATIONAL WEATHER SERVICE SAN JUAN PR
700 PM AST TUE APR 16 2019

PRZ001>002-007>008-010-170000-
PUERTO RICO
  
CITY           SKY/WX    TMP DP  RH WIND       PRES   REMARKS
SAN JUAN LMM   PTCLDY    79  70  73 E17       30.00S                  
AGUADILLA      PTCLDY    79  72  78 E15G22    30.01R                  
CEIBA          MOCLDY    81  70  69 E7        30.02R                  
$$

VIZ001>002-170000-
U.S. VIRGIN ISLANDS
  
CITY           SKY/WX    TMP DP  RH WIND       PRES   REMARKS
CHARLOTTE AMA  PTCLDY    81  68  65 NE9       30.00R                  
CHRISTIANSTED  CLEAR     79  68  69 NE9       30.00R                  
$$

HOURLY WEATHER ROUNDUP FOR THE NEWS MEDIA
  
CITY           SKY/WX    TMP DP  RH WIND       PRES   REMARKS
ORLANDO        FAIR      77  55  46 E15       30.13R                  
NEW YORK       MOCLDY    61  29  29 W21       29.97R                  
NEWARK         MOCLDY    61  24  24 W18G28    29.97R                  
CHICAGO        CLOUDY    59  46  62 N21       29.91R                  
HARTFORD       FAIR      56  24  29 W9G20     29.87R                  
BOSTON         MOCLDY    59  19  21 NW16G25   29.86R                  
DALLAS         PTSUNNY   76  58  53 SE18G28   29.89F                  
PHILADELPHIA   FAIR      65  30  27 NW9       30.03R                  
LOS ANGELES    PTSUNNY   64  51  62 SW15G21   29.96F                  
WASHINGTON DC  FAIR      67  35  30 VRB6      30.02F